Location: Unspecified
(0.0000°N, 0.0000°E)
Time: 18:40:32
(UTC+00:00)

OTV 5 (USA 277) - Pass Details

Date: 09 February 2018
Orbit: 404 x 417 km, 43.0° (Epoch: 07 September)

Event Time Altitude Azimuth Distance (km) Brightness Sun altitude
Rises 20:03:10 0° 296° (WNW) 2,340 ? -26.3°
Reaches altitude 10° 20:05:30 10° 282° (WNW) 1,479 ? -26.9°
Enters shadow 20:07:37 23° 246° (WSW) 933 ? -27.4°
